CW8081 Thessaloniki GR current weather conditions

sailwx.info

Wind from 330 at 10 knots gusting 17

Air temperature 3.9° C
Dewpoint 2.2° C

Last reported at 2015-Mar-06 23:41 UTC.
Time now 2015-Mar-07 00:09 UTC

Location: N 40°34' E 022°58'.
View on Google Maps.

See reports from other nearby stations

  
Tides and Currents Weather Stations Pressure Air Temp Water Temp Dewpoint Dewpoint Depression Visibility Wind Speed Wind Dir Waves Ship Positions
date/time (UTC)wind fromknots sea level pressurealtimeterstation pressurevisibilityair tempwater tempwave heightnotes
2015-Mar-06 23:41 330 10 gusting 17 3.9
2015-Mar-06 23:31 315 9 gusting 18 3.9
2015-Mar-06 23:11 348 9 gusting 19 3.9
2015-Mar-06 23:01 327 11 gusting 18 4.4
2015-Mar-06 22:41 315 8 gusting 17 4.4
2015-Mar-06 22:31 348 8 gusting 19 4.4
2015-Mar-06 22:11 5.0
2015-Mar-06 22:01 323 7 gusting 15 4.4
2015-Mar-06 21:41 325 8 gusting 13 4.4
2015-Mar-06 21:31 324 6 gusting 15 4.4
2015-Mar-06 21:11 342 11 gusting 17 4.4
2015-Mar-06 21:01 304 8 gusting 18 4.4
2015-Mar-06 20:41 318 7 gusting 13 4.4
2015-Mar-06 20:31 355 8 gusting 17 4.4
2015-Mar-06 20:11 006 13 gusting 19 4.4
2015-Mar-06 20:01 021 12 gusting 18 4.4
2015-Mar-06 19:41 355 10 gusting 22 4.4
2015-Mar-06 19:31 355 11 gusting 20 4.4
2015-Mar-06 19:11 330 8 gusting 18 4.4
2015-Mar-06 19:01 355 8 gusting 21 4.4
2015-Mar-06 18:41 336 13 gusting 24 4.4
2015-Mar-06 18:31 313 11 gusting 21 5.0
2015-Mar-06 18:11 5.6
2015-Mar-06 18:01 307 9 gusting 17 5.6
2015-Mar-06 17:41 330 10 gusting 18 6.1
2015-Mar-06 17:31 302 8 gusting 17 6.1
2015-Mar-06 17:11 331 8 gusting 17 6.1
2015-Mar-06 17:01 330 8 gusting 17 6.1
2015-Mar-06 16:41 355 7 gusting 13 6.1
2015-Mar-06 16:31 319 7 gusting 13 6.7
2015-Mar-06 16:11 340 6 gusting 12 6.7
2015-Mar-06 16:01 319 6 gusting 13 6.7
2015-Mar-06 15:41 317 6 gusting 17 6.7
2015-Mar-06 15:31 334 6 gusting 13 6.7
2015-Mar-06 15:11 348 6 gusting 13 6.7
2015-Mar-06 15:01 325 6 gusting 13 6.7
2015-Mar-06 14:41 304 8 gusting 13 7.2
2015-Mar-06 14:11 349 8 gusting 13 7.2
2015-Mar-06 14:01 7.2
2015-Mar-06 13:41 332 5 gusting 13 7.2
2015-Mar-06 13:31 319 8 gusting 15 7.2
2015-Mar-06 13:11 355 5 gusting 13 7.2
2015-Mar-06 13:01 331 5 gusting 15 7.2
2015-Mar-06 12:41 289 7 gusting 12 7.2
2015-Mar-06 12:31 013 2 gusting 15 7.2
2015-Mar-06 12:11 341 6 gusting 10 7.2
2015-Mar-06 12:01 300 5 gusting 13 7.2
2015-Mar-06 11:41 355 8 gusting 13 7.2
2015-Mar-06 11:31 309 8 gusting 15 7.2
2015-Mar-06 11:11 304 5 gusting 13 7.8
2015-Mar-06 11:01 317 8 gusting 13 7.8
2015-Mar-06 10:41 323 6 gusting 12 7.8
2015-Mar-06 10:31 313 7 gusting 13 7.8
2015-Mar-06 10:11 336 5 gusting 13 7.8
2015-Mar-06 10:01 305 8 gusting 13 7.8
2015-Mar-06 09:41 350 6 gusting 11 7.8
2015-Mar-06 09:31 330 6 gusting 10 7.8
2015-Mar-06 09:11 012 6 gusting 10 7.8
2015-Mar-06 08:41 302 1 gusting 7 7.8
2015-Mar-06 08:31 355 2 gusting 10 7.8
2015-Mar-06 08:11 005 7 gusting 13 7.8
2015-Mar-06 08:01 347 5 gusting 11 7.8
2015-Mar-06 07:41 8.3
2015-Mar-06 07:31 015 7 gusting 10 8.3
2015-Mar-06 07:11 8.9
2015-Mar-06 07:01 005 2 gusting 6 8.9
2015-Mar-06 06:41 345 8.3
2015-Mar-06 06:31 345 8.3
2015-Mar-06 06:11 345 8.3
2015-Mar-06 06:01 345 0 gusting 4 8.3
2015-Mar-06 05:41 344 7.8
2015-Mar-06 05:31 344 1 gusting 6 7.8
2015-Mar-06 05:11 323 0 gusting 6 7.8
2015-Mar-06 05:01 305 1 gusting 7 7.8
2015-Mar-06 04:41 227 1 gusting 8 7.8
2015-Mar-06 04:31 244 2 gusting 6 7.8
2015-Mar-06 04:11 133 1 gusting 6 7.8
2015-Mar-06 04:01 141 7.8
2015-Mar-06 03:41 079 7.2
2015-Mar-06 03:31 148 2 gusting 10 7.2
2015-Mar-06 03:11 244 1 gusting 7 7.2
2015-Mar-06 03:01 042 7.2
2015-Mar-06 02:41 042 0 gusting 2 7.2
2015-Mar-06 02:31 042 7.2
2015-Mar-06 02:11 041 4 gusting 7 7.2
2015-Mar-06 02:01 028 5 gusting 10 7.2
2015-Mar-06 01:41 290 4 gusting 10 6.7
2015-Mar-06 01:31 306 5 gusting 10 6.7
2015-Mar-06 01:11 275 4 gusting 7 7.2
2015-Mar-06 01:01 265 2 gusting 10 7.2
2015-Mar-06 00:41 301 2 gusting 8 7.2
2015-Mar-06 00:31 244 4 gusting 6 7.2
2015-Mar-06 00:11 257 4 gusting 10 7.2
2015-Mar-06 00:01 263 4 gusting 10 7.8
2015-Mar-05 23:41 125 1 gusting 4 7.8
2015-Mar-05 23:31 125 1 gusting 4 7.8
2015-Mar-05 23:11 015 4 gusting 5 7.8
2015-Mar-05 23:01 270 7.8
2015-Mar-05 22:41 270 3 gusting 6 7.8
2015-Mar-05 22:31 259 4 gusting 6 7.8
2015-Mar-05 22:11 224 7.8
2015-Mar-05 22:01 224 7.8
2015-Mar-05 21:41 224 2 gusting 6 7.8
2015-Mar-05 21:31 232 4 gusting 6 8.3
2015-Mar-05 21:11 257 8.3
2015-Mar-05 21:01 257 8.3
2015-Mar-05 20:41 355 8.3
2015-Mar-05 20:31 355 8.3
2015-Mar-05 20:11 355 8.3
2015-Mar-05 20:01 355 8.3
2015-Mar-05 19:41 355 8.9
2015-Mar-05 19:31 355 8.9
2015-Mar-05 19:11 355 8.9
2015-Mar-05 19:01 355 8.9
2015-Mar-05 18:41 309 8.9
2015-Mar-05 18:31 309 8.9
2015-Mar-05 18:11 309 8.9
2015-Mar-05 18:01 309 8.9
2015-Mar-05 17:41 309 8.9
2015-Mar-05 17:31 309 8.9
2015-Mar-05 17:11 309 8.9
2015-Mar-05 17:01 309 8.9
2015-Mar-05 16:41 309 8.9
2015-Mar-05 16:31 309 8.9
2015-Mar-05 16:11 309 8.9
2015-Mar-05 16:01 309 8.9
2015-Mar-05 15:41 309 8.9
2015-Mar-05 15:31 309 8.9
2015-Mar-05 15:11 308 9.4
2015-Mar-05 15:01 308 0 gusting 4 9.4
2015-Mar-05 14:41 019 9.4
2015-Mar-05 14:31 019 9.4
2015-Mar-05 14:11 019 9.4
2015-Mar-05 14:01 019 9.4
2015-Mar-05 13:41 019 9.4
2015-Mar-05 13:31 024 4 gusting 5 9.4
2015-Mar-05 13:11 266 0 gusting 2 9.4
2015-Mar-05 13:01 266 0 gusting 2 9.4
2015-Mar-05 12:31 273 5 gusting 7 9.4
2015-Mar-05 12:11 259 9.4
2015-Mar-05 12:01 259 0 gusting 4 9.4
2015-Mar-05 11:41 259 8.9
2015-Mar-05 11:31 259 0 gusting 5 8.9
2015-Mar-05 11:11 261 8.9
2015-Mar-05 11:01 281 1 gusting 4 8.9
2015-Mar-05 10:41 281 8.9
2015-Mar-05 10:31 281 0 gusting 6 8.9
2015-Mar-05 10:11 292 1 gusting 5 8.9
2015-Mar-05 10:01 299 8.9
2015-Mar-05 09:41 302 0 gusting 6 8.9
2015-Mar-05 09:31 051 8.9
2015-Mar-05 09:11 051 8.9
2015-Mar-05 09:01 051 8.9
2015-Mar-05 08:41 051 8.3
2015-Mar-05 08:31 051 8.3
2015-Mar-05 08:11 051 8.3
2015-Mar-05 08:01 051 8.3
2015-Mar-05 07:41 051 8.3
2015-Mar-05 07:31 051 7.8
2015-Mar-05 07:11 051 7.8
2015-Mar-05 07:01 051 0 gusting 4 7.8
2015-Mar-05 06:41 051 1 gusting 4 7.8
2015-Mar-05 06:31 051 3 gusting 6 8.3
2015-Mar-05 06:11 088 8.9
2015-Mar-05 06:01 088 8.9
2015-Mar-05 05:41 089 9.4
2015-Mar-05 05:31 089 8.9
2015-Mar-05 05:11 078 8.9
2015-Mar-05 05:01 078 8.9
2015-Mar-05 04:41 074 0 gusting 4 8.9
2015-Mar-05 04:31 073 8.9
2015-Mar-05 04:11 073 8.9
2015-Mar-05 04:01 073 8.9
2015-Mar-05 03:41 073 0 gusting 5 8.9
2015-Mar-05 03:31 077 0 gusting 5 9.4
2015-Mar-05 03:11 133 0 gusting 4 9.4
2015-Mar-05 03:01 134 2 gusting 8 9.4
2015-Mar-05 02:41 118 0 gusting 6 8.9
2015-Mar-05 02:31 159 8.9
2015-Mar-05 02:11 086 8.9
2015-Mar-05 02:01 073 0 gusting 4 8.3
2015-Mar-05 01:41 142 8.3
2015-Mar-05 01:31 142 8.3
2015-Mar-05 01:11 093 8.3
2015-Mar-05 01:01 093 8.9
2015-Mar-05 00:41 094 8.9
2015-Mar-05 00:31 095 0 gusting 2 8.9
2015-Mar-05 00:11 136 8.9
2015-Mar-05 00:01 136 8.9